This demonstration page uses our WeatherBlox Daily Observations layout. Learn more.

Left ArrowRight Arrow

Hourly Observations for August 16, 2019

Temp ( °F °C ) Dew Point ( °F °C ) Humidity (%) Winds ( mph kmh ) Pressure ( in mb ) Visibility ( mi km ) Precip ( " mm )
12:56 am 00:56 Mostly Cloudy 68 20 64 18 88 88 Calm 29.93 1014 10 16 0.00 0.00
1:56 am 01:56 Partly Cloudy 68 20 64 18 88 88 SSE 5 7 29.91 1013 10 16 0.00 0.00
2:56 am 02:56 Mostly Clear 66 19 64 18 94 94 Calm 29.89 1012 10 16 0.00 0.00
3:56 am 03:56 Partly Cloudy with Mist and Fog 66 19 64 18 94 94 WNW 3 6 29.90 1013 5 8 0.00 0.00
4:56 am 04:56 Partly Cloudy with Mist and Fog 64 18 64 18 100 100 NW 6 9 29.91 1013 5 8 0.00 0.00
5:34 am 05:34 Partly Cloudy with Mist and Fog 64 18 63 17 94 94 WNW 3 6 29.92 1013 5 8 0.00 0.00
5:45 am 05:45 Mostly Cloudy 64 18 63 17 94 94 WNW 5 7 29.92 1013 10 16 0.00 0.00
5:56 am 05:56 Mostly Cloudy 64 18 63 17 94 94 Calm 29.92 1013 10 16 0.00 0.00
6:56 am 06:56 Cloudy with Mist and Fog 66 19 64 18 94 94 W 5 7 29.96 1014 5 8 0.00 0.00
7:56 am 07:56 Cloudy with Mist and Fog 68 20 64 18 88 88 WSW 7 11 29.95 1014 5 8 0.00 0.00
8:56 am 08:56 Cloudy 70 21 64 18 83 83 WNW 6 9 29.94 1014 10 16 0.00 0.00
9:26 am 09:26 Mostly Cloudy 72 22 64 18 78 78 NW 3 6 29.92 1013 10 16 0.00 0.00
9:56 am 09:56 Cloudy 70 21 64 18 83 83 Calm 29.91 1013 10 16 0.00 0.00
10:56 am 10:56 Cloudy 73 23 64 18 74 74 NE 5 7 29.93 1014 10 16 0.00 0.00
11:56 am 11:56 Mostly Cloudy 73 23 64 18 74 74 SSE 5 7 29.93 1014 10 16 0.00 0.00
12:56 pm 12:56 Mostly Sunny 77 25 64 18 65 65 E 6 9 29.91 1013 10 16 0.00 0.00
1:56 pm 13:56 Partly Cloudy 82 28 64 18 55 55 SE 2 4 29.91 1013 10 16 0.00 0.00
3:56 pm 15:56 Partly Cloudy 84 29 64 18 51 51 NW 5 7 29.86 1011 10 16 0.00 0.00
4:56 pm 16:56 Partly Cloudy 84 29 64 18 51 51 NE 5 7 29.86 1011 10 16 0.00 0.00
5:56 pm 17:56 Partly Cloudy 84 29 64 18 51 51 E 6 9 29.85 1011 10 16 0.00 0.00
6:56 pm 18:56 Partly Cloudy 82 28 68 20 62 62 E 8 13 29.84 1011 10 16 0.00 0.00
7:56 pm 19:56 Partly Cloudy 79 26 70 21 74 74 ENE 5 7 29.85 1011 10 16 0.00 0.00
8:56 pm 20:56 Partly Cloudy 77 25 68 20 74 74 ENE 5 7 29.85 1011 10 16 0.00 0.00
9:56 pm 21:56 Partly Cloudy 75 24 70 21 83 83 ENE 5 7 29.87 1012 10 16 0.00 0.00
10:56 pm 22:56 Partly Cloudy 73 23 70 21 89 89 ENE 6 9 29.85 1011 10 16 0.00 0.00
11:56 pm 23:56 Mostly Cloudy 73 23 70 21 89 89 E 3 6 29.87 1011 10 16 0.00 0.00

Powered by AerisWeather